Sun Valley, CA

3:43 AM PDT on August 30, 2016 (GMT -0700)
Burbank-Glendale-Pasadena

Weather History for KBUR - December, 2013

Change the Weather History Date:

Monday, December 16, 2013

  Actual Average Record
Temperature  
Mean Temperature 69 °F 54 °F  
Max Temperature 86 °F 67 °F 88 °F (1980)
Min Temperature 51 °F 41 °F 29 °F (1977)
Degree Days  
Heating Degree Days 0 11  
Month to date heating degree days 147 170  
Since 1 July heating degree days 235 398  
Cooling Degree Days 4 0  
Month to date cooling degree days 5 0  
Year to date cooling degree days 2016 1245  
Growing Degree Days 20 (Base 50)    
Moisture  
Dew Point 25 °F    
Average Humidity 22    
Maximum Humidity 35    
Minimum Humidity 8    
Precipitation  
Precipitation 0.00 in 0.08 in 2.41 in (1940)
Month to date precipitation 0.02 1.02  
Year to date precipitation 2.85 15.93  
Since 1 July precipitation 0.25  
Sea Level Pressure  
Sea Level Pressure 30.08 in    
Wind  
Wind Speed 3 mph (NW)    
Max Wind Speed 12 mph    
Max Gust Speed 14 mph    
Visibility 10 miles    
Events      
T = Trace of Precipitation, MM = Missing Value Source: NWS Daily Summary

Daily Weather History Graph

Daily Weather History Graph

Search for Another Location

Airport or City:

Trip Planner

Search our weather history database for the weather conditions in past years. The results will help you decide how hot, cold, wet, or windy it might be!

Date:

Astronomy

Dec. 16, 2013 Rise Set
Actual Time 6:52 AM PST 4:45 PM PST
Civil Twilight 6:24 AM PST 5:13 PM PST
Nautical Twilight 5:53 AM PST 5:44 PM PST
Astronomical Twilight 5:23 AM PST 6:15 PM PST
Moon 4:37 PM PST (12/16) 6:07 AM PST (12/16)
Length of Visible Light 10h 48m
Length of Day
9h 52m
Full, 100% of the Moon is Illuminated
Dec 16
Full
Dec 17
Full
Dec 25
Last Quarter
Jan 1
New
Jan 7
First Quarter

Hourly Weather History & Observations

Time (PST) Temp. Dew Point Humidity Pressure Visibility Wind Dir Wind Speed Gust Speed Precip Events Conditions
12:53 AM 57.9 °F 25.0 °F 28% 30.10 in 10.0 mi Calm Calm - N/A   Clear
1:53 AM 55.9 °F 26.1 °F 32% 30.09 in 10.0 mi NNW 5.8 mph - N/A   Clear
2:53 AM 57.9 °F 25.0 °F 28% 30.08 in 10.0 mi West 4.6 mph - N/A   Clear
3:53 AM 57.9 °F 24.1 °F 27% 30.07 in 10.0 mi Calm Calm - N/A   Clear
4:53 AM 55.9 °F 25.0 °F 30% 30.07 in 10.0 mi North 4.6 mph - N/A   Clear
5:53 AM 53.1 °F 26.1 °F 35% 30.08 in 10.0 mi North 3.5 mph - N/A   Clear
6:53 AM 53.1 °F 26.1 °F 35% 30.09 in 10.0 mi Calm Calm - N/A   Clear
7:53 AM 55.9 °F 27.0 °F 33% 30.11 in 9.0 mi NNW 3.5 mph - N/A   Clear
8:53 AM 66.0 °F 28.0 °F 24% 30.11 in 10.0 mi Calm Calm - N/A   Clear
9:53 AM 72.0 °F 25.0 °F 17% 30.11 in 10.0 mi SE 3.5 mph - N/A   Clear
10:53 AM 75.0 °F 26.1 °F 16% 30.11 in 10.0 mi East 3.5 mph - N/A   Clear
11:53 AM 80.1 °F 21.9 °F 12% 30.08 in 10.0 mi SE 3.5 mph - N/A   Clear
12:53 PM 84.0 °F 19.0 °F 9% 30.05 in 10.0 mi Calm Calm - N/A   Clear
1:53 PM 84.0 °F 21.9 °F 10% 30.04 in 10.0 mi Variable 3.5 mph - N/A   Clear
2:53 PM 86.0 °F 19.9 °F 9% 30.03 in 10.0 mi West 3.5 mph - N/A   Clear
3:53 PM 84.9 °F 19.9 °F 9% 30.03 in 10.0 mi Calm Calm - N/A   Clear
4:53 PM 79.0 °F 21.9 °F 12% 30.03 in 10.0 mi NW 4.6 mph - N/A   Clear
5:53 PM 75.9 °F 21.0 °F 13% 30.05 in 10.0 mi West 4.6 mph - N/A   Clear
6:53 PM 72.0 °F 26.1 °F 18% 30.06 in 10.0 mi WNW 6.9 mph - N/A   Clear
7:53 PM 71.1 °F 21.0 °F 15% 30.07 in 10.0 mi Calm Calm - N/A   Clear
8:53 PM 66.0 °F 27.0 °F 23% 30.08 in 10.0 mi North 3.5 mph - N/A   Clear
9:53 PM 64.0 °F 28.9 °F 27% 30.09 in 10.0 mi Calm Calm - N/A   Clear
10:53 PM 62.1 °F 30.0 °F 30% 30.09 in 10.0 mi NNW 3.5 mph - N/A   Clear
11:53 PM 63.0 °F 28.0 °F 27% 30.08 in 10.0 mi West 4.6 mph - N/A   Clear